BEL74C LEBL-EBBR

Flight info

Callsign BEL74C
Flight time 1h 43m
Altitude 36000
Route OLOXO DCT OKABI DCT TOU DCT ADABI DCT BOKNO UN858 VANAD UN874 BAMES UT191 PODEM UN873 BAZOS DCT BELDI DCT VEKIN Z173 ARVOL
Aircraft A320/M-DE3FGHIJ1LORVWY/H

Departure

Time 2026-05-06 11:24
Airport Josep Tarradellas Barcelona-El Prat Airport (LEBL)

Arrival

Time 2026-05-06 13:07
Airport Brussels Airport (EBBR)
Time Latitude Longitude Altitude Speed Heading
2026-05-06 10:51 41.29013 2.08001 20 ft 0 kts 336°
2026-05-06 11:14 41.29012 2.08002 19 ft 1 kts 336°
2026-05-06 11:14 41.28996 2.08011 20 ft 3 kts 339°
2026-05-06 11:14 41.28977 2.08019 20 ft 3 kts 346°
2026-05-06 11:15 41.28958 2.08024 19 ft 3 kts 360°
2026-05-06 11:15 41.28939 2.08021 19 ft 3 kts 32°
2026-05-06 11:15 41.28930 2.08011 21 ft 1 kts 65°
2026-05-06 11:15 41.28929 2.08010 21 ft 0 kts 65°
2026-05-06 11:18 41.28938 2.08034 19 ft 7 kts 65°
2026-05-06 11:18 41.28954 2.08090 20 ft 5 kts 87°
2026-05-06 11:19 41.28940 2.08124 20 ft 3 kts 142°
2026-05-06 11:19 41.28920 2.08136 19 ft 6 kts 156°
2026-05-06 11:19 41.28832 2.08190 17 ft 18 kts 154°
2026-05-06 11:19 41.28732 2.08235 16 ft 12 kts 172°
2026-05-06 11:20 41.28715 2.08304 16 ft 8 kts 69°
2026-05-06 11:20 41.28746 2.08392 18 ft 18 kts 64°
2026-05-06 11:20 41.28815 2.08594 17 ft 23 kts 67°
2026-05-06 11:20 41.28878 2.08794 16 ft 24 kts 63°
2026-05-06 11:21 41.28957 2.08997 16 ft 25 kts 68°
2026-05-06 11:21 41.29028 2.09216 16 ft 26 kts 65°
2026-05-06 11:21 41.29106 2.09442 19 ft 27 kts 65°
2026-05-06 11:21 41.29186 2.09677 17 ft 28 kts 65°
2026-05-06 11:22 41.29264 2.09903 19 ft 14 kts 65°
2026-05-06 11:22 41.29278 2.10021 16 ft 13 kts 106°
2026-05-06 11:22 41.29239 2.10142 16 ft 16 kts 108°
2026-05-06 11:22 41.29247 2.10282 14 ft 13 kts 122°
2026-05-06 11:23 41.29192 2.10245 16 ft 11 kts 248°
2026-05-06 11:23 41.29129 2.10061 19 ft 50 kts 245°
2026-05-06 11:23 41.28888 2.09357 17 ft 115 kts 245°
2026-05-06 11:23 41.28471 2.08173 42 ft 163 kts 243°
2026-05-06 11:24 41.27981 2.06825 669 ft 161 kts 236°
2026-05-06 11:24 41.27118 2.05967 1334 ft 159 kts 198°
2026-05-06 11:24 41.26044 2.05635 2004 ft 158 kts 191°
2026-05-06 11:24 41.24961 2.05386 2592 ft 158 kts 191°
2026-05-06 11:25 41.23882 2.05131 3131 ft 158 kts 193°
2026-05-06 11:25 41.22759 2.04851 3442 ft 174 kts 193°
2026-05-06 11:25 41.21493 2.04520 3684 ft 197 kts 193°
2026-05-06 11:25 41.20079 2.04137 3969 ft 216 kts 194°
2026-05-06 11:26 41.18587 2.03704 4538 ft 222 kts 199°
2026-05-06 11:26 41.17301 2.02563 5053 ft 230 kts 237°
2026-05-06 11:26 41.16880 2.00536 5736 ft 236 kts 273°
2026-05-06 11:26 41.17423 1.98488 5956 ft 239 kts 300°
2026-05-06 11:27 41.18430 1.96735 6005 ft 239 kts 308°
2026-05-06 11:27 41.19539 1.95089 6007 ft 239 kts 309°
2026-05-06 11:27 41.20638 1.93434 6007 ft 238 kts 307°
2026-05-06 11:27 41.21700 1.91744 6009 ft 238 kts 306°
2026-05-06 11:28 41.22841 1.90187 6000 ft 241 kts 320°
2026-05-06 11:28 41.24342 1.88936 6007 ft 264 kts 327°
2026-05-06 11:28 41.25935 1.87671 6008 ft 268 kts 326°
2026-05-06 11:28 41.27529 1.86364 6006 ft 269 kts 326°
2026-05-06 11:29 41.29128 1.85031 6520 ft 272 kts 325°
2026-05-06 11:29 41.30733 1.83688 7415 ft 273 kts 325°
2026-05-06 11:29 41.32350 1.82339 8306 ft 275 kts 325°
2026-05-06 11:29 41.33976 1.80987 9210 ft 276 kts 325°
2026-05-06 11:30 41.35614 1.79632 10062 ft 278 kts 325°
2026-05-06 11:30 41.37305 1.78229 10435 ft 298 kts 325°
2026-05-06 11:30 41.39127 1.76713 10664 ft 320 kts 325°
2026-05-06 11:30 41.41046 1.75116 11203 ft 329 kts 325°
2026-05-06 11:31 41.43004 1.73486 11882 ft 334 kts 325°
2026-05-06 11:31 41.44986 1.71833 12581 ft 338 kts 326°
2026-05-06 11:31 41.46994 1.70163 13278 ft 342 kts 326°
2026-05-06 11:31 41.49024 1.68474 13944 ft 346 kts 326°
2026-05-06 11:32 41.51108 1.66828 14545 ft 351 kts 331°
2026-05-06 11:32 41.53418 1.65673 15152 ft 359 kts 342°
2026-05-06 11:32 41.55904 1.65126 15758 ft 365 kts 350°
2026-05-06 11:32 41.58439 1.64739 16393 ft 368 kts 350°
2026-05-06 11:33 41.60996 1.64340 16989 ft 372 kts 349°
2026-05-06 11:33 41.63574 1.63935 17571 ft 375 kts 349°
2026-05-06 11:33 41.66183 1.63525 18160 ft 380 kts 349°
2026-05-06 11:33 41.68823 1.63111 18644 ft 384 kts 349°
2026-05-06 11:34 41.71487 1.62691 19133 ft 388 kts 348°
2026-05-06 11:34 41.74179 1.62265 19623 ft 392 kts 348°
2026-05-06 11:34 41.76900 1.61836 20136 ft 396 kts 348°
2026-05-06 11:34 41.79642 1.61408 20682 ft 398 kts 348°
2026-05-06 11:35 41.82403 1.60976 21186 ft 402 kts 348°
2026-05-06 11:35 41.85193 1.60539 21664 ft 406 kts 347°
2026-05-06 11:35 41.88015 1.60095 22125 ft 411 kts 347°
2026-05-06 11:35 41.90866 1.59647 22588 ft 415 kts 347°
2026-05-06 11:36 41.93747 1.59193 23041 ft 418 kts 346°
2026-05-06 11:36 41.96652 1.58730 23490 ft 422 kts 346°
2026-05-06 11:36 41.99540 1.58268 23870 ft 425 kts 346°
2026-05-06 11:36 42.02486 1.57799 24232 ft 428 kts 346°
2026-05-06 11:37 42.05454 1.57330 24601 ft 431 kts 346°
2026-05-06 11:37 42.08442 1.56861 24971 ft 433 kts 346°
2026-05-06 11:37 42.11442 1.56392 25289 ft 435 kts 346°
2026-05-06 11:37 42.14460 1.55918 25631 ft 437 kts 346°
2026-05-06 11:38 42.17484 1.55439 25968 ft 439 kts 346°
2026-05-06 11:38 42.20525 1.54955 26309 ft 441 kts 346°
2026-05-06 11:38 42.23573 1.54466 26712 ft 442 kts 346°
2026-05-06 11:38 42.26636 1.53974 27080 ft 444 kts 346°
2026-05-06 11:39 42.29710 1.53478 27427 ft 446 kts 346°
2026-05-06 11:39 42.32801 1.52982 27753 ft 449 kts 346°
2026-05-06 11:39 42.35910 1.52485 28116 ft 450 kts 347°
2026-05-06 11:39 42.39019 1.51991 28512 ft 450 kts 346°
2026-05-06 11:40 42.42137 1.51492 28864 ft 452 kts 346°
2026-05-06 11:40 42.45265 1.50987 29145 ft 454 kts 346°
2026-05-06 11:40 42.48415 1.50480 29420 ft 457 kts 346°
2026-05-06 11:40 42.51577 1.49972 29686 ft 459 kts 346°
2026-05-06 11:41 42.54761 1.49456 29926 ft 462 kts 346°
2026-05-06 11:41 42.57956 1.48937 30140 ft 463 kts 346°
2026-05-06 11:41 42.61168 1.48416 30402 ft 465 kts 346°
2026-05-06 11:41 42.64390 1.47897 30582 ft 468 kts 346°
2026-05-06 11:42 42.67626 1.47382 30750 ft 469 kts 346°
2026-05-06 11:42 42.70872 1.46865 31009 ft 470 kts 347°
2026-05-06 11:42 42.74113 1.46349 31331 ft 469 kts 347°
2026-05-06 11:42 42.77350 1.45833 31633 ft 468 kts 346°
2026-05-06 11:43 42.80578 1.45317 31908 ft 467 kts 347°
2026-05-06 11:43 42.83801 1.44796 32187 ft 466 kts 346°
2026-05-06 11:43 42.87025 1.44273 32367 ft 466 kts 347°
2026-05-06 11:44 42.93456 1.43220 32948 ft 465 kts 347°
2026-05-06 11:44 42.96665 1.42696 33234 ft 464 kts 347°
2026-05-06 11:44 42.99875 1.42175 33496 ft 464 kts 347°
2026-05-06 11:44 43.03080 1.41657 33831 ft 464 kts 347°
2026-05-06 11:45 43.06279 1.41142 34098 ft 463 kts 347°
2026-05-06 11:45 43.09476 1.40625 34325 ft 462 kts 347°
2026-05-06 11:45 43.12669 1.40105 34555 ft 462 kts 347°
2026-05-06 11:45 43.15862 1.39583 34765 ft 462 kts 347°
2026-05-06 11:46 43.19012 1.39067 34969 ft 462 kts 347°
2026-05-06 11:46 43.22203 1.38544 35184 ft 462 kts 347°
2026-05-06 11:46 43.25393 1.38024 35382 ft 462 kts 348°
2026-05-06 11:46 43.28586 1.37503 35582 ft 462 kts 348°
2026-05-06 11:47 43.31775 1.36979 35768 ft 462 kts 348°
2026-05-06 11:47 43.34969 1.36450 35924 ft 462 kts 348°
2026-05-06 11:47 43.41341 1.35401 35963 ft 460 kts 348°
2026-05-06 11:48 43.47695 1.34349 35966 ft 460 kts 348°
2026-05-06 11:48 43.54047 1.33295 35967 ft 460 kts 348°
2026-05-06 11:49 43.60396 1.32245 35975 ft 460 kts 348°
2026-05-06 11:49 43.66748 1.31199 35990 ft 460 kts 349°
2026-05-06 11:50 43.73066 1.29910 35985 ft 457 kts 345°
2026-05-06 11:50 43.79300 1.28218 35980 ft 456 kts 344°
2026-05-06 11:51 43.85529 1.26474 35988 ft 457 kts 345°
2026-05-06 11:51 43.91776 1.24835 35982 ft 457 kts 346°
2026-05-06 11:52 43.98027 1.23232 35971 ft 457 kts 346°
2026-05-06 11:52 44.04285 1.21631 35981 ft 457 kts 346°
2026-05-06 11:53 44.10529 1.20006 35976 ft 456 kts 346°
2026-05-06 11:53 44.16765 1.18361 35972 ft 456 kts 346°
2026-05-06 11:54 44.23006 1.16723 35977 ft 456 kts 346°
2026-05-06 11:54 44.29254 1.15091 35979 ft 457 kts 346°
2026-05-06 11:55 44.35495 1.13461 35974 ft 454 kts 346°
2026-05-06 11:55 44.41694 1.11827 35978 ft 453 kts 346°
2026-05-06 11:56 44.47887 1.10190 35972 ft 453 kts 346°
2026-05-06 11:56 44.54073 1.08555 35962 ft 452 kts 346°
2026-05-06 11:57 44.60254 1.06913 35957 ft 452 kts 346°
2026-05-06 11:57 44.66441 1.05266 35958 ft 453 kts 347°
2026-05-06 11:58 44.72624 1.03629 35950 ft 452 kts 347°
2026-05-06 11:58 44.78797 1.01982 35943 ft 451 kts 347°
2026-05-06 11:59 44.83925 1.00611 35938 ft 451 kts 347°
2026-05-06 11:59 44.90086 0.98957 35932 ft 451 kts 347°
2026-05-06 12:00 44.96253 0.97300 35932 ft 451 kts 346°
2026-05-06 12:00 45.02423 0.95638 35940 ft 451 kts 347°
2026-05-06 12:01 45.08590 0.93983 35934 ft 451 kts 347°
2026-05-06 12:01 45.14756 0.92329 35926 ft 451 kts 347°
2026-05-06 12:02 45.20915 0.90654 35934 ft 451 kts 347°
2026-05-06 12:02 45.27080 0.88975 35929 ft 451 kts 347°
2026-05-06 12:03 45.33245 0.87298 35929 ft 451 kts 347°
2026-05-06 12:03 45.39374 0.85621 35927 ft 451 kts 347°
2026-05-06 12:04 45.45577 0.83925 35922 ft 451 kts 347°
2026-05-06 12:04 45.51699 0.82255 35921 ft 451 kts 347°
2026-05-06 12:05 45.57862 0.80572 35924 ft 451 kts 347°
2026-05-06 12:05 45.64031 0.78880 35922 ft 451 kts 347°
2026-05-06 12:06 45.70195 0.77174 35925 ft 451 kts 347°
2026-05-06 12:06 45.76348 0.75466 35928 ft 450 kts 347°
2026-05-06 12:07 45.82497 0.73769 35931 ft 450 kts 348°
2026-05-06 12:07 45.88642 0.72072 35930 ft 450 kts 348°
2026-05-06 12:08 45.94780 0.70358 35931 ft 449 kts 348°
2026-05-06 12:08 46.00919 0.68657 35929 ft 449 kts 348°
2026-05-06 12:09 46.07051 0.66948 35926 ft 449 kts 348°
2026-05-06 12:09 46.13176 0.65230 35919 ft 448 kts 348°
2026-05-06 12:10 46.19306 0.63507 35925 ft 449 kts 348°
2026-05-06 12:10 46.25431 0.61781 35917 ft 449 kts 348°
2026-05-06 12:11 46.31556 0.60053 35917 ft 449 kts 348°
2026-05-06 12:11 46.37689 0.58323 35925 ft 449 kts 348°
2026-05-06 12:12 46.43814 0.56589 35931 ft 449 kts 348°
2026-05-06 12:12 46.49938 0.54844 35925 ft 448 kts 348°
2026-05-06 12:13 46.56117 0.53700 35924 ft 450 kts
2026-05-06 12:13 46.62252 0.55094 35925 ft 451 kts 12°
2026-05-06 12:14 46.68372 0.57127 35927 ft 451 kts 12°
2026-05-06 12:14 46.74500 0.59151 35930 ft 451 kts 12°
2026-05-06 12:15 46.80628 0.61174 35935 ft 451 kts 12°
2026-05-06 12:15 46.86752 0.63196 35942 ft 451 kts 12°
2026-05-06 12:16 46.92880 0.65222 35936 ft 451 kts 12°
2026-05-06 12:16 46.99000 0.67263 35939 ft 451 kts 12°
2026-05-06 12:17 47.05134 0.69158 35937 ft 450 kts
2026-05-06 12:17 47.11380 0.69844 35940 ft 450 kts
2026-05-06 12:18 47.17628 0.70497 35948 ft 450 kts
2026-05-06 12:18 47.23879 0.71158 35952 ft 450 kts
2026-05-06 12:19 47.30124 0.71809 35954 ft 450 kts
2026-05-06 12:19 47.36371 0.72466 35953 ft 450 kts
2026-05-06 12:20 47.42612 0.73121 35954 ft 450 kts
2026-05-06 12:20 47.48851 0.73900 35953 ft 450 kts
2026-05-06 12:21 47.54870 0.76461 35951 ft 451 kts 18°
2026-05-06 12:21 47.60823 0.79396 35959 ft 451 kts 17°
2026-05-06 12:22 47.66785 0.82325 35961 ft 451 kts 18°
2026-05-06 12:22 47.72704 0.85249 35956 ft 452 kts 18°
2026-05-06 12:23 47.78674 0.88203 35952 ft 453 kts 18°
2026-05-06 12:23 47.84649 0.91178 35951 ft 453 kts 18°
2026-05-06 12:24 47.90622 0.94181 35948 ft 453 kts 18°
2026-05-06 12:24 47.96596 0.97213 35952 ft 454 kts 18°
2026-05-06 12:25 48.02572 1.00246 35952 ft 454 kts 18°
2026-05-06 12:25 48.08549 1.03287 35953 ft 454 kts 18°
2026-05-06 12:26 48.14525 1.06331 35956 ft 454 kts 18°
2026-05-06 12:26 48.20503 1.09386 35955 ft 453 kts 18°
2026-05-06 12:27 48.26475 1.12448 35959 ft 453 kts 18°
2026-05-06 12:27 48.32437 1.15488 35960 ft 452 kts 18°
2026-05-06 12:28 48.38394 1.18526 35962 ft 452 kts 18°
2026-05-06 12:28 48.44355 1.21572 35952 ft 452 kts 18°
2026-05-06 12:29 48.50299 1.24625 35952 ft 451 kts 18°
2026-05-06 12:29 48.56228 1.27685 35948 ft 450 kts 18°
2026-05-06 12:30 48.62122 1.30666 35936 ft 449 kts 18°
2026-05-06 12:30 48.68069 1.33630 35925 ft 451 kts 18°
2026-05-06 12:31 48.74032 1.36634 35929 ft 452 kts 18°
2026-05-06 12:31 48.80002 1.39667 35927 ft 453 kts 18°
2026-05-06 12:32 48.85974 1.42710 35920 ft 453 kts 18°
2026-05-06 12:32 48.91950 1.45750 35929 ft 453 kts 18°
2026-05-06 12:33 48.97963 1.48641 35930 ft 453 kts 11°
2026-05-06 12:33 49.04188 1.50147 35930 ft 453 kts
2026-05-06 12:34 49.10424 1.51594 35934 ft 453 kts
2026-05-06 12:34 49.16650 1.53062 35937 ft 453 kts
2026-05-06 12:35 49.22843 1.54823 35937 ft 453 kts 17°
2026-05-06 12:35 49.28479 1.59072 35935 ft 453 kts 36°
2026-05-06 12:36 49.33159 1.65520 35929 ft 453 kts 44°
2026-05-06 12:36 49.37725 1.72208 35935 ft 455 kts 44°
2026-05-06 12:37 49.42301 1.78909 35935 ft 454 kts 44°
2026-05-06 12:37 49.46870 1.85615 35914 ft 454 kts 44°
2026-05-06 12:38 49.51429 1.92350 35906 ft 455 kts 44°
2026-05-06 12:38 49.55990 1.99108 35913 ft 455 kts 44°
2026-05-06 12:39 49.60555 2.05871 35920 ft 455 kts 44°
2026-05-06 12:39 49.65113 2.12657 35925 ft 455 kts 44°
2026-05-06 12:40 49.69671 2.19455 35922 ft 455 kts 44°
2026-05-06 12:40 49.74225 2.26267 35923 ft 456 kts 44°
2026-05-06 12:41 49.78757 2.33051 35913 ft 457 kts 44°
2026-05-06 12:41 49.83318 2.39905 35902 ft 457 kts 44°
2026-05-06 12:42 49.87876 2.46788 35902 ft 458 kts 45°
2026-05-06 12:42 49.92422 2.53687 35314 ft 456 kts 45°
2026-05-06 12:43 49.94687 2.57126 34668 ft 454 kts 45°
2026-05-06 12:43 49.96941 2.60542 34094 ft 451 kts 45°
2026-05-06 12:43 49.99178 2.63932 33431 ft 448 kts 45°
2026-05-06 12:43 50.01398 2.67300 32864 ft 443 kts 45°
2026-05-06 12:44 50.03584 2.70630 32314 ft 438 kts 45°
2026-05-06 12:44 50.05743 2.73931 31765 ft 433 kts 45°
2026-05-06 12:44 50.07882 2.77203 31200 ft 429 kts 45°
2026-05-06 12:44 50.10001 2.80446 30654 ft 426 kts 45°
2026-05-06 12:45 50.12102 2.83666 30148 ft 421 kts 45°
2026-05-06 12:45 50.14181 2.86856 29593 ft 417 kts 45°
2026-05-06 12:45 50.18278 2.93152 28415 ft 411 kts 45°
2026-05-06 12:46 50.20305 2.96278 27844 ft 408 kts 45°
2026-05-06 12:46 50.22316 2.99382 27293 ft 405 kts 45°
2026-05-06 12:46 50.24312 3.02467 26759 ft 402 kts 45°
2026-05-06 12:46 50.26289 3.05530 26244 ft 399 kts 45°
2026-05-06 12:47 50.28254 3.08576 25737 ft 396 kts 45°
2026-05-06 12:47 50.29549 3.10584 25415 ft 395 kts 45°
2026-05-06 12:47 50.31490 3.13597 24920 ft 392 kts 45°
2026-05-06 12:47 50.33424 3.16592 24452 ft 390 kts 45°
2026-05-06 12:48 50.35343 3.19566 24031 ft 387 kts 45°
2026-05-06 12:48 50.37252 3.22538 23812 ft 387 kts 45°
2026-05-06 12:48 50.39161 3.25515 23588 ft 387 kts 44°
2026-05-06 12:48 50.41067 3.28492 23322 ft 386 kts 44°
2026-05-06 12:49 50.42966 3.31460 23044 ft 385 kts 44°
2026-05-06 12:49 50.44857 3.34419 22767 ft 383 kts 44°
2026-05-06 12:49 50.46737 3.37366 22495 ft 382 kts 44°
2026-05-06 12:49 50.48602 3.40291 22143 ft 376 kts 44°
2026-05-06 12:50 50.50443 3.43177 21689 ft 372 kts 44°
2026-05-06 12:50 50.52267 3.46039 21239 ft 369 kts 44°
2026-05-06 12:50 50.54087 3.48872 20765 ft 367 kts 41°
2026-05-06 12:50 50.56081 3.51327 20321 ft 363 kts 33°
2026-05-06 12:51 50.58151 3.53588 19860 ft 361 kts 33°
2026-05-06 12:51 50.60209 3.55845 19405 ft 360 kts 33°
2026-05-06 12:51 50.62259 3.58098 18943 ft 359 kts 33°
2026-05-06 12:51 50.64301 3.60346 18490 ft 358 kts 33°
2026-05-06 12:52 50.66339 3.62593 18014 ft 357 kts 33°
2026-05-06 12:52 50.68371 3.64835 17545 ft 355 kts 33°
2026-05-06 12:52 50.70386 3.67059 17103 ft 353 kts 33°
2026-05-06 12:52 50.72389 3.69267 16659 ft 350 kts 33°
2026-05-06 12:53 50.74379 3.71466 16211 ft 348 kts 33°
2026-05-06 12:53 50.76356 3.73653 15789 ft 346 kts 34°
2026-05-06 12:53 50.78324 3.75839 15355 ft 345 kts 33°
2026-05-06 12:53 50.80282 3.78021 14911 ft 344 kts 33°
2026-05-06 12:54 50.82227 3.80192 14483 ft 342 kts 33°
2026-05-06 12:54 50.84167 3.82358 14043 ft 340 kts 33°
2026-05-06 12:54 50.86097 3.84520 13599 ft 339 kts 36°
2026-05-06 12:54 50.87824 3.87051 13137 ft 339 kts 48°
2026-05-06 12:55 50.89161 3.90105 12679 ft 337 kts 57°
2026-05-06 12:55 50.90374 3.93271 12238 ft 334 kts 57°
2026-05-06 12:55 50.91579 3.96399 11793 ft 332 kts 57°
2026-05-06 12:55 50.92722 3.99559 11356 ft 330 kts 64°
2026-05-06 12:56 50.93547 4.02941 10902 ft 328 kts 68°
2026-05-06 12:56 50.94326 4.06322 10452 ft 326 kts 68°
2026-05-06 12:56 50.95097 4.09681 10107 ft 320 kts 69°
2026-05-06 12:56 50.95838 4.12926 9985 ft 307 kts 68°
2026-05-06 12:57 50.96552 4.16056 9856 ft 296 kts 68°
2026-05-06 12:57 50.97242 4.19088 9576 ft 291 kts 68°
2026-05-06 12:57 50.97917 4.22056 9224 ft 288 kts 68°
2026-05-06 12:57 50.98605 4.25082 8754 ft 288 kts 68°
2026-05-06 12:58 50.99279 4.28046 8347 ft 286 kts 68°
2026-05-06 12:58 50.99950 4.31003 8011 ft 282 kts 68°
2026-05-06 12:58 51.00597 4.33861 7490 ft 277 kts 68°
2026-05-06 12:58 51.01240 4.36710 7021 ft 273 kts 68°
2026-05-06 12:59 51.01879 4.39535 6609 ft 271 kts 68°
2026-05-06 12:59 51.02515 4.42342 6206 ft 269 kts 68°
2026-05-06 12:59 51.03150 4.45148 5789 ft 269 kts 68°
2026-05-06 12:59 51.03778 4.47932 5430 ft 265 kts 68°
2026-05-06 13:00 51.04395 4.50679 5101 ft 263 kts 68°
2026-05-06 13:00 51.05007 4.53401 4730 ft 261 kts 68°
2026-05-06 13:00 51.05612 4.56104 4348 ft 258 kts 68°
2026-05-06 13:00 51.06210 4.58786 3957 ft 256 kts 68°
2026-05-06 13:01 51.06801 4.61447 3582 ft 255 kts 68°
2026-05-06 13:01 51.07389 4.64089 3239 ft 251 kts 68°
2026-05-06 13:01 51.07894 4.66698 2864 ft 249 kts 80°
2026-05-06 13:01 51.07671 4.69435 2390 ft 256 kts 111°
2026-05-06 13:02 51.06588 4.71670 2038 ft 259 kts 142°
2026-05-06 13:02 51.04948 4.72804 2000 ft 254 kts 164°
2026-05-06 13:02 51.03287 4.73430 1993 ft 237 kts 166°
2026-05-06 13:02 51.01735 4.73972 1994 ft 221 kts 166°
2026-05-06 13:03 51.00254 4.74471 1998 ft 216 kts 167°
2026-05-06 13:03 50.98740 4.74964 2012 ft 228 kts 173°
2026-05-06 13:03 50.97190 4.74844 2028 ft 217 kts 194°
2026-05-06 13:03 50.95856 4.73974 1993 ft 202 kts 214°
2026-05-06 13:04 50.94818 4.72553 1991 ft 194 kts 233°
2026-05-06 13:04 50.94124 4.70761 2003 ft 190 kts 251°
2026-05-06 13:04 50.93671 4.68802 1994 ft 190 kts 254°
2026-05-06 13:04 50.93238 4.66914 2018 ft 174 kts 254°
2026-05-06 13:05 50.92829 4.65121 2004 ft 173 kts 256°
2026-05-06 13:05 50.92410 4.63263 1752 ft 178 kts 254°
2026-05-06 13:05 50.92000 4.61483 1396 ft 166 kts 255°
2026-05-06 13:05 50.91616 4.59837 1144 ft 153 kts 255°
2026-05-06 13:06 50.91256 4.58277 955 ft 149 kts 254°
2026-05-06 13:06 50.90907 4.56766 762 ft 147 kts 255°
2026-05-06 13:06 50.90565 4.55229 602 ft 146 kts 254°
2026-05-06 13:06 50.90226 4.53743 436 ft 144 kts 253°
2026-05-06 13:07 50.89877 4.52259 207 ft 143 kts 253°
2026-05-06 13:07 50.89577 4.50941 174 ft 93 kts 249°
2026-05-06 13:07 50.89482 4.50413 175 ft 24 kts 287°
2026-05-06 13:07 50.89511 4.50144 171 ft 26 kts 279°
2026-05-06 13:08 50.89519 4.49868 168 ft 22 kts 234°
2026-05-06 13:08 50.89473 4.49662 168 ft 20 kts 248°
2026-05-06 13:08 50.89468 4.49448 165 ft 20 kts 306°
2026-05-06 13:08 50.89566 4.49263 158 ft 24 kts 307°
2026-05-06 13:09 50.89666 4.49152 151 ft 18 kts 10°
2026-05-06 13:09 50.89805 4.49209 143 ft 23 kts 15°
2026-05-06 13:09 50.89972 4.49278 133 ft 26 kts 14°
2026-05-06 13:09 50.90123 4.49340 130 ft 21 kts 14°
2026-05-06 13:10 50.90268 4.49400 125 ft 22 kts 16°
2026-05-06 13:10 50.90370 4.49333 122 ft 14 kts 333°
2026-05-06 13:10 50.90370 4.49212 124 ft 13 kts 245°
2026-05-06 13:10 50.90331 4.49074 123 ft 15 kts 245°
2026-05-06 13:11 50.90298 4.48958 123 ft 6 kts 249°
2026-05-06 13:11 50.90327 4.48905 121 ft 9 kts 339°
2026-05-06 13:11 50.90364 4.48879 120 ft 3 kts 335°
2026-05-06 13:11 50.90366 4.48877 119 ft 0 kts 336°